This demonstration page uses our WeatherBlox Daily Observations layout. Learn more.

Left ArrowRight Arrow

53.62937, 11.41316

Hourly Observations for May 4, 2019

Temp ( °F °C ) Dew Point ( °F °C ) Humidity (%) Winds ( mph kmh ) Pressure ( in mb ) Visibility ( mi km ) Precip ( " mm )
6:50 am 06:50 Mostly Sunny 36 2 34 1 93 93 WSW 8 13 29.65 1004 30 48 N/A
7:20 am 07:20 Mostly Sunny 37 3 34 1 87 87 WSW 13 20 29.65 1004 7 11 N/A
7:50 am 07:50 Mostly Sunny 39 4 36 2 87 87 W 10 17 29.65 1004 7 11 N/A
8:20 am 08:20 Mostly Sunny 39 4 36 2 87 87 W 9 15 29.65 1004 30 48 N/A
8:50 am 08:50 Mostly Sunny 41 5 36 2 81 81 W 12 19 29.65 1004 7 11 N/A
9:20 am 09:20 Mostly Sunny 43 6 36 2 76 76 W 13 20 29.65 1004 30 48 N/A
9:50 am 09:50 Partly Cloudy 43 6 34 1 71 71 W 9 15 29.65 1004 30 48 N/A
10:20 am 10:20 Partly Cloudy 43 6 34 1 71 71 W 10 17 29.65 1004 30 48 N/A
10:50 am 10:50 Partly Cloudy 45 7 32 undefined 61 61 VRB 7 11 29.65 1004 30 48 N/A
11:20 am 11:20 Partly Cloudy 45 7 32 undefined 61 61 WNW 7 11 29.68 1005 30 48 N/A
11:50 am 11:50 Partly Cloudy 45 7 32 undefined 61 61 VRB 5 7 29.68 1005 30 48 N/A
12:20 pm 12:20 Partly Cloudy 46 8 30 -1 53 53 WNW 6 9 29.68 1005 30 48 N/A
12:50 pm 12:50 Partly Cloudy 48 9 30 -1 50 50 WNW 6 9 29.68 1005 30 48 N/A
1:20 pm 13:20 Mostly Sunny 48 9 30 -1 50 50 VRB 5 7 29.68 1005 30 48 N/A
1:50 pm 13:50 Mostly Sunny 48 9 34 1 58 58 N 12 19 29.71 1006 30 48 N/A
2:20 pm 14:20 Mostly Sunny 48 9 28 -2 46 46 NNW 12 19 29.71 1006 30 48 N/A
2:50 pm 14:50 Partly Cloudy 50 10 32 undefined 50 50 NNE 17 28 29.71 1006 30 48 N/A
3:20 pm 15:20 Partly Cloudy with Showers Nearby 46 8 34 1 62 62 N 10 17 29.74 1007 30 48 N/A
3:50 pm 15:50 Mostly Sunny 48 9 30 -1 50 50 NNE 13 20 29.74 1007 30 48 N/A
4:20 pm 16:20 Mostly Sunny 48 9 32 undefined 54 54 NNE 12 19 29.74 1007 30 48 N/A
4:50 pm 16:50 Mostly Sunny 46 8 30 -1 53 53 NNE 9 15 29.74 1007 30 48 N/A
5:20 pm 17:20 Mostly Sunny 46 8 28 -2 50 50 NNE 9 15 29.77 1008 30 48 N/A
5:50 pm 17:50 Mostly Sunny 48 9 27 -3 43 43 NE 12 19 29.77 1008 30 48 N/A
6:20 pm 18:20 Mostly Sunny 48 9 28 -2 46 46 NNE 9 15 29.77 1008 30 48 N/A
6:50 pm 18:50 Mostly Sunny 48 9 28 -2 46 46 NNW 12 19 29.80 1009 30 48 N/A
7:20 pm 19:20 Partly Cloudy with Showers 43 6 30 -1 61 61 N 14 22 29.80 1009 30 48 N/A
7:50 pm 19:50 Mostly Sunny 45 7 32 undefined 61 61 VRB 2 4 29.83 1010 7 11 N/A
8:20 pm 20:20 Mostly Sunny 45 7 34 1 66 66 N N/A 29.83 1010 7 11 N/A
8:50 pm 20:50 Mostly Sunny 43 6 34 1 71 71 W 3 6 29.86 1011 7 11 N/A

Powered by AerisWeather